Regional Weather Roundup
Issued by NWS Little Rock, AR

Home | Current Version | Previous Version | Text Only | Print | Product List | Glossary Off
Versions: 1 2 3 4 5 6 7 8 9 10 11 12 13 14 15 16 17 18 19 20 21 22 23 24 25 26 27

000
ASUS44 KLZK 231205
RWRLZK

WEATHER ROUNDUP FOR ARKANSAS
NATIONAL WEATHER SERVICE LITTLE ROCK AR
700 AM CDT WED APR 23 2014

NOTE: "FAIR" INDICATES FEW OR NO CLOUDS BELOW 12,000 FEET WITH NO
SIGNIFICANT WEATHER AND/OR OBSTRUCTIONS TO VISIBILITY.

ARZ001-003-010-029-231300-
NORTHWEST ARKANSAS

CITY           SKY/WX    TMP DP  RH WIND       PRES   REMARKS
FAYETTEVILLE   CLEAR     41  40  96 CALM      29.98R
6HR MIN TEMP:  39; 6HR MAX TEMP:  46;

FORT SMITH     CLEAR     51  44  77 E8        29.98R
6HR MIN TEMP:  48; 6HR MAX TEMP:  56;

HARRISON       CLEAR     49  38  65 SE8       30.04R
6HR MIN TEMP:  46; 6HR MAX TEMP:  54;

BENTONVILLE    CLEAR     54  36  50 SE12      29.98R
6HR MIN TEMP:  48; 6HR MAX TEMP:  55;

ROGERS         CLEAR     50  46  86 E12       29.99R
6HR MIN TEMP:  50; 6HR MAX TEMP:  53;

SILOAM SPGS    CLEAR     48  36  61 E5        29.98R
6HR MIN TEMP:  48; 6HR MAX TEMP:  52;

HIGHFILL       CLEAR     50  40  68 E3        29.97R
6HR MIN TEMP:  44; 6HR MAX TEMP:  54;

$$

ARZ004-005-016-231300-
NORTH CENTRAL ARKANSAS

CITY           SKY/WX    TMP DP  RH WIND       PRES   REMARKS
BATESVILLE     CLEAR     45  43  93 NW3       30.04S
6HR MIN TEMP:  45; 6HR MAX TEMP:  55;

FLIPPIN        CLEAR     43  34  70 CALM      30.05R
6HR MIN TEMP:  43; 6HR MAX TEMP:  50;

MTN HOME       CLEAR     49  37  63 E5        30.03R
6HR MIN TEMP:  47; 6HR MAX TEMP:  57;

$$

ARZ040-041-231300-
WEST CENTRAL ARKANSAS

CITY           SKY/WX    TMP DP  RH WIND       PRES   REMARKS
MENA           CLEAR     45 N/A N/A CALM      30.00R
MOUNT IDA      CLEAR     45  44  97 CALM      29.98R FOG
6HR MIN TEMP:  45; 6HR MAX TEMP:  52;

$$

ARZ009-017-025-026-028-231300-
NORTHEAST ARKANSAS

CITY           SKY/WX    TMP DP  RH WIND       PRES   REMARKS
CORNING        FAIR      48  39  71 NE7       30.06R
JONESBORO      CLEAR     51  40  65 NE6       30.05R
6HR MIN TEMP:  48; 6HR MAX TEMP:  56;

NEWPORT        CLEAR     49  46  89 N7        30.06R
6HR MIN TEMP:  48; 6HR MAX TEMP:  57;

WALNUT RIDGE   CLEAR     48  39  71 NE5       30.06R
6HR MIN TEMP:  46; 6HR MAX TEMP:  55;

BLYTHEVILLE    CLEAR     47  43  86 CALM      30.06R
6HR MIN TEMP:  44; 6HR MAX TEMP:  54;

$$

ARZ022-023-033-042-044-231300-
CENTRAL ARKANSAS

CITY           SKY/WX    TMP DP  RH WIND       PRES   REMARKS
LITTLE ROCK    PTCLDY    53  45  74 NE3       30.03R
6HR MIN TEMP:  51; 6HR MAX TEMP:  58;

N LITTLE ROCK    N/A     55  47  73 E8        30.03R
6HR MIN TEMP:  54; 6HR MAX TEMP:  61;

JACKSONVILLE   CLEAR     50  45  83 E5        30.03R
6HR MIN TEMP:  47; 6HR MAX TEMP:  51;

SEARCY         CLEAR     47  44  89 CALM      30.05R
6HR MIN TEMP:  46; 6HR MAX TEMP:  54;

HOT SPRINGS    CLEAR     50  47  89 SE3       30.02R
6HR MIN TEMP:  49; 6HR MAX TEMP:  55; 6HR PCP: TRACE;

RUSSELLVILLE   CLEAR     57  41  55 E3        30.01R
6HR MIN TEMP:  46; 6HR MAX TEMP:  57;

CLINTON        FAIR      43  43 100 CALM      30.06R
$$

ARZ036-231300-
EAST ARKANSAS

CITY           SKY/WX    TMP DP  RH WIND       PRES   REMARKS
WEST MEMPHIS   CLEAR     48  44  86 NE3       30.03R
6HR MIN TEMP:  47; 6HR MAX TEMP:  57;

$$

ARZ050-053-066-070-073-231300-
SOUTHWEST ARKANSAS

CITY           SKY/WX    TMP DP  RH WIND       PRES   REMARKS
ARKADELPHIA    FAIR      54  52  93 CALM      30.01R
6HR MIN TEMP:  53; 6HR MAX TEMP:  58;

CAMDEN         CLEAR     50  48  93 MISG      30.00R FOG
TEXARKANA      CLEAR     54  53  97 CALM      29.97R FOG
6HR MIN TEMP:  54; 6HR MAX TEMP:  62;

EL DORADO      CLEAR     54  53  97 CALM      29.99R FOG
6HR MIN TEMP:  53; 6HR MAX TEMP:  59;

DE QUEEN       CLEAR     49  48  97 CALM      29.96R FOG
6HR MIN TEMP:  49; 6HR MAX TEMP:  54;

$$

ARZ056-057-069-231300-
SOUTHEAST ARKANSAS

CITY           SKY/WX    TMP DP  RH WIND       PRES   REMARKS
PINE BLUFF     CLEAR     55  48  77 CALM      30.02R
6HR MIN TEMP:  50; 6HR MAX TEMP:  57;

STUTTGART      CLEAR     54  45  71 NE6       30.03R
6HR MIN TEMP:  54; 6HR MAX TEMP:  57;

MONTICELLO     CLEAR     50  47  89 CALM      30.01R
6HR MIN TEMP:  49; 6HR MAX TEMP:  55; 6HR PCP: TRACE;


$$





USA.gov is the U.S. government's official web portal to all federal, state and local government web resources and services.